Tracking 18987 objects as of 25-Feb-2018
HD Live streaming from Space Station
objects crossing your sky now

ARIANE 44L+3 R/B

Track ARIANE 44L+3 R/B now!


NORAD ID: 23866
Int'l Code: 1996-030C
Perigee: 318.0 km
Apogee: 30,551.8 km
Inclination: 4.5 °
Period: 534.1 minutes
Semi major axis: 21805 km
RCS: 20.3809 m2 (large)
Launch date: May 16, 1996
Source: France (FR)
Launch site: FRENCH GUIANA (FRGUI)

Note: This is a ROCKET BODY
aabbcc
Your satellite tracking list
Your tracking list is empty




NASA's NSSDC Master Catalog

Two Line Element Set (TLE):
1 23866U 96030C   18055.51858054  .00000448  00000-0  15828-3 0  9991
2 23866   4.4718  39.3891 6932486 197.7092 114.5465  2.69613983197849
Source of the keplerian elements: AFSPC